GFSNW_700_temp_264.txt.gz
Temp
-2 -2 -3 -2 -1 -1 -1 -1 -3 -2 -2 -3 -3 -2 -1 0 0 0 0 0 0 -0 -1 -2 -2 -2 -2 -3 -3 -4 -4 -4 -4 -6 -5 -5 -5 -5 -5 -5 -7 -7 -7 -5
-3 -2 -2 -2 -1 -1 -1 -1 -3 -3 -3 -3 -3 -2 -1 -1 -0 0 -0 -0 -1 -1 -1 -2 -3 -2 -3 -3 -3 -4 -4 -4 -6 -5 -6 -5 -6 -5 -5 -5 -6 -7 -6 -5
-2 -2 -2 -1 -1 -1 -1 -1 -3 -3 -2 -3 -1 -1 -2 -1 -1 -0 -1 -1 -1 -1 -2 -2 -2 -3 -3 -3 -3 -4 -4 -4 -4 -2 -4 -4 -5 -5 -5 -6 -7 -6 -6 -6
-2 -2 -2 -2 -1 -1 -1 -2 -2 -2 -2 -3 -2 -0 -1 -1 -1 -1 -1 -1 -1 -1 -2 -2 -2 -3 -3 -3 -4 -4 -4 -4 -4 -4 -4 -4 -5 -6 -5 -5 -6 -6 -6 -6
-3 -2 -3 -2 -1 -1 -1 -0 -1 -3 -4 -2 -1 -1 -1 0 -0 -0 -1 -1 -1 -2 -2 -1 -1 -1 -2 -2 -4 -4 -4 -5 -5 -6 -4 -5 -6 -6 -6 -6 -5 -5 -6 -6
-3 -2 -3 -1 -1 -2 -1 -1 -1 -2 -2 -2 -1 -1 -0 -1 -0 -0 -1 -1 -1 -2 -2 -2 -2 -3 -3 -2 -3 -4 -5 -6 -6 -4 -6 -5 -5 -3 -5 -4 -4 -5 -6 -6
-3 -3 -3 -1 -2 -2 -2 -1 0 -1 0 -0 -0 -1 -0 -0 -1 -1 -1 -2 -2 -2 -2 -2 -2 -4 -4 -4 -4 -4 -4 -6 -6 -4 -6 -4 -3 -3 -4 -5 -5 -4 -5 -6
-3 -3 -2 -2 -2 -1 -2 -2 -2 1 1 1 -1 -1 -1 -2 -1 -1 -2 -2 -2 -2 -2 -3 -5 -6 -6 -5 -4 -5 -6 -6 -6 -5 -4 -3 -4 -3 -3 -4 -5 -4 -5 -7
-3 -3 -3 -2 -2 -1 -2 -2 -0 1 2 -0 1 1 -1 -1 -2 -2 -3 -3 -3 -3 -3 -3 -5 -5 -4 -5 -5 -5 -5 -6 -6 -7 -5 -2 -3 -2 -3 -4 -5 -4 -5 -6
-3 -3 -2 -3 -2 -2 -2 -1 -0 0 1 1 1 0 -0 -1 -1 -1 -3 -3 -4 -4 -4 -3 -4 -4 -4 -5 -5 -6 -7 -7 -7 -7 -6 -4 -3 -2 -3 -5 -3 -4 -5 -6
-3 -3 -2 -3 -2 -2 -1 -1 -1 -1 -2 -0 -1 -0 -0 -1 -1 -0 -2 -3 -4 -4 -4 -4 -3 -4 -3 -4 -4 -5 -5 -6 -6 -6 -7 -4 -1 -2 -3 -3 -3 -4 -5 -5
-3 -3 -3 -2 -2 -2 -2 -1 -2 -2 -1 0 0 -1 -1 -2 -1 0 -2 -1 -1 -2 -3 -3 -2 -2 -2 -3 -4 -3 -4 -2 -3 -2 -1 -1 -2 -2 -3 -3 -4 -5 -5 -5
-4 -4 -3 -3 -2 -2 -1 -1 -2 -2 -1 -1 -2 -2 -2 -2 -3 -3 -3 -2 -1 -1 -1 -2 -2 -2 -2 -2 -2 -2 -2 -2 -2 -1 -1 -1 -2 -3 -3 -4 -5 -5 -6 -6
-4 -3 -3 -3 -2 -2 -3 -2 -2 -2 -1 -1 -2 -2 -3 -3 -3 -3 -4 -3 -2 -2 -3 -2 -2 -2 -2 -3 -2 -2 -3 -1 -1 -0 -1 -1 -2 -2 -3 -4 -5 -5 -6 -6
-4 -4 -3 -3 -3 -2 -2 -2 -3 -3 -1 -0 -2 -2 -3 -4 -3 -4 -3 -3 -3 -3 -3 -4 -3 -2 -2 -2 -2 -1 0 0 -0 -0 -1 -1 -1 -2 -3 -4 -5 -5 -6 -6
-4 -4 -3 -3 -3 -3 -2 -3 -3 -3 -2 -0 -3 -3 -4 -4 -4 -4 -4 -3 -4 -4 -3 -4 -3 -3 -3 -2 -2 1 1 0 0 0 -0 -1 -1 -2 -2 -3 -5 -5 -6 -6
-4 -4 -4 -4 -3 -3 -3 -3 -3 -3 -2 -1 -2 -4 -4 -4 -5 -5 -5 -4 -4 -4 -4 -4 -4 -3 -3 -3 -0 1 1 0 0 -0 -0 -0 -1 -2 -2 -3 -4 -5 -6 -6
-4 -4 -4 -4 -4 -3 -3 -3 -3 -2 -2 -2 -2 -4 -5 -5 -6 -6 -6 -6 -5 -5 -5 -4 -4 -3 -4 -2 2 1 1 1 1 1 -0 -0 -1 -1 -2 -3 -4 -5 -6 -6
-5 -4 -4 -4 -4 -4 -3 -3 -3 -3 -3 -2 -2 -2 -4 -5 -5 -6 -6 -6 -6 -5 -5 -4 -4 -3 -2 0 2 2 1 1 1 0 0 -0 -1 -2 -2 -3 -4 -5 -5 -6
-4 -5 -4 -4 -4 -4 -3 -4 -4 -4 -3 -2 -2 -1 -2 -3 -5 -6 -6 -6 -6 -5 -4 -4 -3 -1 1 2 2 1 1 1 0 -0 -1 -1 -1 -2 -3 -4 -4 -5 -5 -6
-4 -4 -4 -4 -3 -3 -4 -4 -4 -4 -3 -3 -3 -2 -2 -3 -6 -6 -6 -6 -5 -5 -5 -4 -3 1 3 2 2 2 1 1 -0 -1 -1 -2 -2 -2 -3 -4 -4 -5 -5 -6
-4 -4 -4 -4 -4 -4 -4 -4 -3 -3 -3 -3 -4 -3 -3 -4 -6 -7 -6 -6 -5 -5 -5 -5 -2 0 2 3 3 3 2 1 1 -0 -2 -2 -3 -3 -3 -4 -4 -5 -5 -6
-5 -5 -5 -5 -4 -4 -4 -4 -4 -3 -2 -2 -2 -3 -4 -6 -6 -6 -6 -6 -6 -6 -5 -4 -1 2 2 2 2 2 2 1 1 -1 -2 -3 -3 -3 -4 -4 -4 -5 -6 -6
-5 -4 -5 -4 -3 -3 -3 -2 -2 -1 -1 -0 -2 -3 -5 -5 -5 -5 -5 -5 -6 -5 -5 -1 0 1 1 2 1 1 1 1 0 -1 -2 -3 -3 -4 -4 -4 -5 -5 -6 -6
-5 -5 -4 -4 -3 -3 -1 -1 -0 -1 -1 -1 -3 -4 -4 -4 -5 -5 -5 -5 -5 -4 -0 1 1 1 1 1 1 1 1 0 -0 -1 -2 -3 -3 -4 -4 -5 -5 -5 -6 -6
-5 -4 -3 -3 -3 -2 -1 -0 -2 -2 -1 -3 -4 -5 -5 -5 -4 -4 -4 -5 -3 -0 1 1 1 1 1 1 1 1 -0 -1 -1 -2 -3 -3 -4 -4 -4 -5 -5 -6 -6 -6
-4 -4 -4 -3 -3 -1 -0 -0 -1 -2 -2 -3 -3 -4 -4 -4 -5 -4 -3 -2 -1 -0 0 0 0 -0 0 -0 -0 -0 -1 -1 -2 -3 -3 -4 -4 -5 -5 -5 -6 -6 -6 -7

GFSNW_700_temp_270.txt.gz
Temp
-8 -8 -9 -4 -2 -1 -1 -1 -1 -2 -2 -2 -1 -2 -1 1 1 1 1 2 2 2 1 0 -0 -0 -1 1 0 -0 -2 -2 -3 -2 -3 -3 -3 -2 -2 -4 -5 -5 -5 -3
-9 -8 -6 -4 -2 -2 -2 -1 -1 -3 -2 -2 -2 -2 -0 0 1 0 1 1 1 1 0 0 -0 -1 -1 0 -0 -2 -1 -2 -2 -2 -3 -3 -3 -4 -2 -3 -4 -5 -4 -2
-9 -9 -9 -5 -5 -2 -2 -2 -2 -1 -3 -2 -2 -2 -0 -0 0 0 1 1 1 0 -0 1 -1 -1 0 -0 -3 -2 -2 -2 -1 0 -1 -2 -3 -3 -4 -4 -4 -4 -4 -2
-9 -9 -6 -5 -5 -3 -3 -3 -2 -1 -2 -2 -2 -2 -1 -0 -1 -0 -0 -0 2 0 -0 -1 -1 -1 0 -2 -1 -1 -2 -1 -1 -2 -1 -2 -2 -3 -4 -3 -2 -4 -2 -2
-9 -8 -7 -5 -5 -3 -4 -3 -2 -2 -2 -2 -2 -2 -1 -1 -0 -0 -0 2 0 0 2 2 -0 1 -0 -1 -0 -2 -2 -2 -2 -2 -1 -2 -2 -2 -2 -3 -3 -3 -2 -1
-7 -7 -8 -5 -3 -3 -4 -2 -1 -0 -2 -2 -2 -1 -1 -1 -1 -1 1 2 0 1 0 -1 -1 -0 -2 -2 0 -1 -2 -3 -2 -1 -1 -2 -1 0 -1 -2 -2 -2 -2 -2
-8 -8 -6 -5 -4 -4 -3 -2 -1 -2 -2 -2 -2 -1 -1 -1 -1 2 1 -0 -0 -1 -1 -1 -1 -3 -3 -3 -2 -3 -3 -3 -2 -2 -1 -3 1 1 1 1 -1 -2 -3 -2
-7 -7 -7 -4 -4 -3 -3 -2 -1 -1 -2 -2 -1 -1 -1 -1 -1 0 0 -1 -1 1 -0 -1 -3 -3 -3 -3 -3 -3 -3 -3 -3 -2 -1 -0 0 0 1 0 -0 -2 -2 -3
-8 -7 -4 -5 -3 -2 -2 -2 -2 -2 -1 -2 -1 -1 -0 -1 -1 -1 -1 -1 -0 -0 -0 -0 -2 -3 -2 -3 -3 -3 -3 -3 -3 -4 -2 0 1 -0 0 0 -0 0 -1 -2
-7 -7 -5 -4 -4 -3 -3 -2 -2 -1 -2 -1 -1 -1 -1 -1 -1 -2 -1 -1 -2 -2 -1 -1 -1 -0 -1 -2 -2 -3 -4 -4 -4 -4 -4 -2 0 -1 0 -2 -1 -0 -2 -3
-7 -6 -3 -4 -4 -3 -3 -2 -1 -2 -2 -1 -1 -0 -1 -2 -0 2 -0 -1 -2 -3 -2 -1 -1 -0 -1 -1 -2 -3 -3 -4 -4 -5 -4 -2 0 -0 0 -1 0 -1 -1 -3
-7 -5 -2 -4 -3 -3 -3 -2 -2 -2 -2 -1 -0 -2 -1 -0 2 3 2 1 1 -1 -1 -1 -2 -2 -2 -1 -2 -2 -2 -0 -0 0 2 1 0 1 0 -0 -0 -1 -2 -3
-8 -4 -4 -4 -3 -3 -2 -2 -2 -2 -2 -2 -3 -2 -2 -2 -1 1 2 1 1 1 1 1 -1 -2 -2 -1 -2 -1 -1 -1 -1 -0 2 1 2 1 0 0 -1 -2 -2 -3
-5 -3 -4 -4 -3 -3 -2 -2 -2 -1 -2 -2 -3 -3 -3 -3 -0 -0 -1 0 1 1 0 0 -0 -1 -0 -1 -0 -1 0 -0 0 1 1 2 1 1 1 -0 -1 -1 -4 -4
-4 -3 -5 -4 -3 -3 -3 -2 -2 -1 0 -2 -3 -3 -3 -2 -1 -1 0 1 0 -0 -0 -1 -1 -2 -2 -1 -1 -1 -0 1 1 3 2 2 1 1 1 0 -1 -2 -3 -3
-5 -4 -3 -3 -3 -2 -3 -2 -3 -2 -1 1 -4 -4 -3 -2 -2 -1 -1 -1 -1 -1 -1 -1 -1 -2 -2 -2 -2 1 2 1 1 2 1 1 1 1 1 0 -0 -2 -2 -3
-4 -4 -3 -4 -3 -3 -2 -2 -2 -2 -1 0 -2 -4 -4 -4 -2 -2 -2 -1 -2 -2 -2 -3 -3 -3 -3 -2 -0 1 2 2 2 2 2 0 1 1 1 0 -0 -2 -3 -4
-4 -4 -4 -3 -3 -3 -2 -3 -3 -2 -2 -0 -2 -5 -5 -5 -3 -2 -2 -2 -2 -2 -3 -3 -3 -4 -3 -2 2 2 2 2 2 2 2 1 0 1 1 1 0 -0 -1 -2
-4 -4 -3 -3 -3 -3 -3 -3 -2 -2 -1 -1 -1 -1 -5 -4 -4 -3 -2 -3 -3 -4 -3 -3 -3 -3 -3 2 3 3 2 2 2 2 2 1 1 1 1 1 1 -1 -1 -2
-4 -3 -3 -4 -4 -3 -2 -2 -2 -2 -2 -1 -1 -0 0 -1 -2 -3 -4 -4 -4 -3 -2 -2 -4 -2 0 1 2 3 3 3 2 2 2 2 2 1 1 0 -0 -1 -1 -2
-4 -4 -4 -3 -3 -2 -2 -2 -2 -3 -2 -2 -2 0 2 -2 -1 -2 -3 -3 -3 -4 -4 -4 -4 2 4 2 3 2 2 2 2 2 1 1 1 1 1 0 -0 -1 -2 -2
-3 -3 -3 -3 -3 -3 -3 -4 -4 -4 -4 -3 -0 -1 -1 -2 -4 -3 -3 -4 -3 -5 -5 -4 -1 3 3 3 3 3 3 3 3 3 2 2 1 1 0 -0 -1 -1 -2 -2
-3 -3 -4 -3 -3 -3 -4 -4 -4 -3 -3 -2 -1 -2 -3 -4 -3 -3 -3 -4 -3 -5 -3 -2 3 2 3 3 3 3 3 3 3 3 2 2 2 1 0 -1 -1 -2 -2 -2
-4 -4 -4 -3 -3 -3 -2 -0 -1 -0 -0 -1 -1 1 -1 -2 -3 -3 -3 -4 -4 -4 -3 2 2 2 2 2 2 3 3 3 2 2 2 2 1 1 -1 -1 -1 -2 -3 -3
-4 -4 -4 -3 -3 -2 -1 -1 0 1 1 1 -0 -0 -1 -2 -3 -2 -3 -3 -3 -2 1 2 2 2 2 2 1 2 2 2 2 1 1 1 1 -1 -1 -2 -2 -3 -3 -4
-3 -3 -3 -2 -2 -0 -1 -0 0 0 0 0 -0 -2 -2 -2 -2 -2 -1 -2 -0 1 2 1 2 2 2 2 2 2 2 1 1 1 1 1 -0 -1 -2 -3 -3 -4 -4 -4
-3 -3 -2 -2 -1 -0 1 0 0 0 1 -1 -2 -1 -2 -2 -2 -1 -0 1 2 1 1 1 1 1 1 1 1 1 1 1 1 1 1 -0 -1 -1 -2 -3 -4 -4 -4 -5

GFSNW_700_temp_273.txt.gz
Temp
-8 -7 -6 -6 -6 -5 -4 -4 -2 -2 -2 -2 -2 -2 -2 1 2 2 2 2 3 3 2 1 1 1 2 2 2 0 0 -0 -2 -2 -2 -1 -1 -1 -1 -2 -4 -4 -6 -1
-8 -8 -7 -7 -6 -5 -4 -3 -3 -2 -2 -1 -1 -2 -2 1 1 1 2 2 2 2 2 1 1 0 1 1 1 1 1 -1 -3 -3 -2 -2 -2 -1 -2 -2 -3 -4 -5 -1
-8 -8 -8 -8 -7 -6 -6 -6 -5 -2 -2 -2 -2 -2 -2 0 1 1 2 2 2 2 1 1 0 0 1 1 -0 -1 -0 -1 -0 -1 -1 -1 -1 -1 -1 -2 -3 -3 -1 0
-8 -8 -9 -9 -9 -9 -8 -6 -4 -2 -2 -2 -2 -2 -1 0 1 1 1 1 2 2 1 1 1 0 0 -1 -2 -2 -1 -0 -0 -1 -1 -1 -1 -1 -2 -1 -1 -2 0 0
-8 -9 -9 -9 -9 -10 -8 -6 -4 -3 -2 -2 -2 -2 -1 -0 0 1 0 1 1 2 3 4 3 2 1 1 -1 -1 -1 -1 -1 -1 -1 -2 -2 -2 -2 -2 -2 -1 -1 1
-8 -9 -10 -10 -10 -9 -7 -6 -4 -2 -2 -2 -2 -2 -0 -0 0 0 1 2 2 1 2 2 2 1 1 0 1 1 -1 -2 -2 -1 -1 -1 -1 1 0 -1 1 1 -1 -0
-8 -9 -10 -10 -10 -8 -5 -4 -3 -3 -2 -2 -2 -2 -1 -0 -0 0 0 1 2 1 0 1 -1 -1 -2 -1 -0 -0 -0 -2 -2 -1 -1 -6 1 1 1 1 1 -0 -0 -1
-8 -9 -9 -10 -9 -6 -6 -5 -3 -3 -2 -2 -2 -1 -1 -0 -0 0 0 0 1 1 1 -0 -2 -3 -3 -3 -2 -2 -2 -2 -2 -1 -2 0 2 1 1 1 2 1 -0 -2
-8 -9 -8 -8 -6 -5 -4 -3 -2 -2 -2 -2 -0 -1 -1 -1 -1 -0 -0 -0 0 1 1 0 -1 -3 -2 -3 -3 -3 -3 -3 -2 -3 -2 -3 1 1 1 1 1 1 0 -1
-9 -9 -8 -8 -3 -5 -4 -3 -2 -2 -2 -2 -1 -0 -0 -1 -0 -0 -1 -1 -1 -0 0 -0 -1 -1 -0 -2 -3 -3 -4 -4 -3 -3 -3 1 1 1 1 1 1 1 0 -1
-8 -8 -6 -3 -5 -5 -3 -3 -2 -2 -2 -1 -2 -1 -1 -1 -0 -0 -1 -1 -2 -1 -1 -0 0 -0 -1 -1 -1 -2 -2 -4 -4 -4 -4 -0 2 2 1 2 1 1 -0 -1
-8 -7 -7 -3 -4 -4 -3 -3 -2 -2 -2 -2 -2 -2 -1 0 0 2 1 1 2 -0 0 -0 0 -0 -1 -1 -1 -2 -2 0 1 1 2 2 2 2 2 1 1 1 -0 -0
-8 -7 -7 -4 -4 -4 -3 -2 -1 -2 -2 -2 -2 -2 -2 -1 0 1 2 1 1 3 2 2 1 0 0 -0 -1 -0 -1 -0 -1 0 2 2 2 2 2 1 1 1 0 -1
-7 -7 -6 -2 -4 -3 -2 -2 -2 -2 -2 -2 -2 -2 -3 -1 -1 -0 0 1 2 1 1 1 1 1 1 1 1 1 2 1 1 2 2 2 3 2 2 1 1 0 0 -0
-8 -7 -3 -2 -4 -3 -2 -2 -2 -2 -1 -2 -3 -3 -3 -2 -1 -1 -0 1 0 1 1 0 0 0 1 0 -0 -0 1 2 2 4 3 2 2 2 2 2 1 1 -0 -1
-7 -6 -2 -3 -3 -3 -3 -3 -3 -3 -2 -2 -3 -3 -3 -3 -2 -1 0 -0 -0 0 0 0 0 0 0 -0 -1 2 2 2 2 3 1 2 2 3 2 2 1 1 0 -0
-7 -5 -2 -3 -3 -3 -3 -2 -3 -3 -3 -3 -3 -4 -4 -3 -2 -1 -2 -1 -1 -1 -0 -0 -0 -1 -1 -0 1 2 2 2 1 2 0 0 2 3 2 2 1 1 0 -1
-7 -4 -4 -4 -4 -3 -3 -3 -3 -2 -3 -3 -4 -5 -4 -4 -2 -2 -2 -2 -2 -1 -1 -1 -1 -1 -1 1 4 2 1 2 2 2 2 1 1 2 2 2 1 1 0 -0
-6 -4 -4 -4 -4 -3 -3 -3 -3 -3 -3 -1 -2 -4 -5 -5 -3 -2 -3 -3 -2 -2 -2 -1 -1 -1 0 4 4 3 3 3 2 2 1 1 1 2 2 2 2 1 0 -1
-5 -5 -4 -4 -4 -3 -3 -3 -3 -3 -2 -2 -1 -0 -1 -3 -3 -4 -3 -3 -3 -1 -1 -1 -1 2 3 4 4 3 3 2 2 2 1 1 2 2 2 2 1 1 -0 -1
-5 -5 -4 -3 -3 -3 -3 -4 -3 -3 -3 -3 -0 1 2 -2 -2 -2 -3 -3 -2 -1 -1 -1 -1 4 5 3 5 4 3 1 2 2 2 2 2 2 2 1 1 0 -1 -1
-5 -4 -4 -3 -4 -3 -3 -3 -3 -2 -3 -2 0 -2 -1 -2 -3 -3 -3 -2 -1 -1 -2 -2 1 5 4 4 4 3 3 2 1 2 2 2 2 2 1 1 0 -1 -1 -2
-5 -4 -4 -4 -4 -3 -4 -3 -2 -1 -1 -1 -0 -1 -2 -2 -3 -2 -1 -1 -1 -1 -1 -0 3 3 4 4 4 3 3 3 2 2 2 1 1 1 2 1 -1 -1 -2 -2
-4 -4 -4 -3 -3 -3 -1 0 1 1 0 0 -0 -0 -1 -2 -2 -1 -0 -2 -1 -1 -1 2 4 3 4 4 3 3 3 3 3 3 3 2 2 2 1 1 -0 -1 -2 -3
-4 -3 -3 -3 -1 -1 -0 1 1 0 1 2 -1 -1 0 -0 -1 0 -1 -1 -0 0 3 3 3 3 4 3 3 3 2 3 3 2 2 2 2 1 1 0 -1 -2 -2 -3
-4 -3 -2 -1 -1 -1 0 1 0 1 1 -0 1 0 -1 -0 0 0 1 0 2 3 3 3 3 3 3 3 3 2 2 2 2 2 1 1 1 0 0 -1 -1 -2 -2 -3
-3 -3 -2 -1 -0 1 0 -0 1 -0 0 0 -0 1 -0 -0 0 0 1 3 3 3 3 2 2 2 2 2 2 2 2 1 2 2 1 1 0 0 -0 -1 -2 -2 -3 -3

GFSNW_700_temp_279.txt.gz
Temp
-10 -10 -9 -9 -9 -8 -8 -8 -7 -5 -4 -3 -3 -2 -3 -2 -0 0 1 3 4 4 4 3 2 2 2 2 1 1 1 1 -2 -2 -2 -2 -2 -1 -1 -1 -2 -3 -4 1
-10 -10 -9 -9 -9 -9 -8 -8 -7 -6 -4 -3 -3 -3 -3 -2 0 1 1 2 3 4 4 2 1 1 1 1 1 1 1 -0 -2 -3 -2 -2 -1 -1 -1 -1 -2 -1 -2 2
-10 -10 -9 -9 -9 -9 -8 -8 -7 -6 -4 -3 -3 -3 -3 -2 -0 -0 0 1 2 3 3 2 2 2 1 1 1 0 0 0 2 2 1 2 0 1 -0 -1 -1 -0 1 2
-10 -10 -9 -9 -9 -9 -9 -9 -7 -5 -4 -3 -3 -3 -3 -3 -1 -0 -0 0 1 2 3 1 2 2 2 1 1 0 -0 0 1 1 1 1 1 1 1 1 1 0 2 2
-9 -9 -9 -9 -9 -10 -9 -8 -7 -6 -5 -3 -3 -3 -2 -1 -0 -1 -0 1 1 2 3 3 3 3 2 2 1 1 -0 0 0 -0 -0 -0 -1 -0 -0 -0 -0 0 1 3
-9 -9 -9 -9 -9 -10 -9 -8 -7 -5 -4 -4 -4 -2 -2 -2 -0 -1 -0 0 1 2 2 2 3 2 2 2 2 2 0 -0 -1 -1 -1 -2 -1 2 2 2 3 2 2 2
-9 -9 -9 -9 -9 -9 -9 -7 -7 -6 -5 -3 -2 -2 -3 -2 -1 -0 -0 0 1 2 1 1 2 2 0 0 1 0 1 -1 -1 -1 -2 -7 2 3 4 4 2 2 3 3
-8 -9 -9 -9 -9 -9 -10 -8 -7 -7 -5 -4 -4 -3 -3 -3 -2 -0 0 0 1 1 1 1 1 0 -0 -1 -1 -1 -2 -1 -1 -1 -2 1 3 4 4 3 4 4 4 3
-8 -9 -9 -8 -9 -9 -9 -8 -8 -7 -6 -4 -4 -3 -3 -2 -1 -3 -1 0 1 1 1 1 1 0 0 -1 -1 -2 -3 -3 -1 -2 -1 -4 3 3 3 2 3 4 4 3
-8 -9 -8 -8 -8 -9 -9 -8 -7 -7 -6 -5 -3 -3 -2 -2 -1 -1 -2 -0 0 1 1 1 1 1 1 1 -1 -3 -3 -4 -3 -3 -2 1 3 3 2 1 4 4 4 3
-8 -8 -8 -8 -8 -9 -9 -7 -7 -7 -6 -4 -4 -3 -3 -3 -1 -1 -2 -0 -0 0 -0 0 0 1 1 0 0 0 -1 -3 -3 -4 -4 -0 4 3 3 3 3 4 3 3
-8 -8 -8 -8 -8 -8 -9 -7 -7 -7 -6 -4 -4 -3 -2 -3 -0 -0 -1 -0 -0 0 -0 0 0 1 1 1 1 0 -1 1 1 1 3 4 4 3 3 3 3 3 3 2
-8 -8 -8 -8 -8 -8 -8 -8 -7 -7 -6 -4 -3 -2 -2 -2 -2 -1 -1 -1 0 1 1 1 1 1 1 2 2 2 1 2 1 2 3 3 3 3 3 3 3 2 2 2
-8 -8 -8 -8 -9 -9 -8 -7 -6 -7 -7 -5 -3 -2 -3 -2 -3 -2 -2 -0 0 1 1 1 1 1 2 2 2 2 2 2 3 3 3 3 3 4 3 3 3 3 2 2
-7 -8 -8 -8 -9 -9 -9 -9 -7 -7 -6 -5 -3 -2 -2 -2 -3 -2 -3 -2 -2 1 1 0 1 1 1 2 2 2 3 4 4 4 3 3 3 3 2 3 3 2 2 2
-7 -8 -8 -9 -9 -10 -10 -10 -8 -7 -6 -4 -3 -2 -2 -2 -3 -2 -3 -2 -2 -0 0 -0 0 1 1 1 1 3 3 3 3 3 2 2 3 2 3 3 3 2 2 2
-7 -8 -8 -9 -9 -10 -9 -8 -5 -6 -8 -8 -7 -3 -3 -3 -3 -4 -3 -3 -1 -1 -2 -1 0 0 0 0 2 4 4 3 3 3 2 2 3 3 3 3 2 2 1 1
-8 -8 -9 -10 -10 -9 -10 -10 -8 -8 -8 -7 -6 -4 -2 -3 -3 -4 -4 -3 -3 -3 -1 -1 -1 -0 -0 1 4 4 3 3 3 3 3 3 2 2 3 2 2 2 2 1
-9 -10 -10 -10 -10 -9 -9 -9 -7 -5 -7 -7 -5 -4 -4 -4 -4 -4 -3 -3 -3 -2 -2 -1 -1 -1 -0 3 3 4 4 4 3 3 3 3 3 3 2 2 2 2 2 1
-9 -9 -9 -10 -10 -10 -9 -7 -8 -6 -5 -6 -3 -3 -2 -3 -4 -4 -4 -4 -3 -2 -2 -1 -1 0 2 3 4 4 4 4 4 3 3 3 4 4 3 3 2 1 1 1
-9 -9 -9 -9 -10 -9 -9 -8 -6 -5 -4 -4 -3 -1 1 -2 -3 -4 -4 -3 -3 -2 -1 -1 -1 2 5 4 4 4 4 4 4 3 3 3 3 3 3 2 2 1 1 1
-9 -9 -10 -9 -9 -7 -7 -5 -4 -4 -3 -2 -3 -3 -1 -3 -4 -3 -2 -2 -2 -0 -0 -1 -0 4 4 5 5 5 5 5 5 4 3 3 3 2 2 2 1 1 1 1
-9 -9 -8 -8 -7 -5 -5 -4 -4 -2 -3 -2 -2 -4 -3 -4 -4 -4 -2 -1 -1 -1 -1 0 3 3 5 5 5 6 5 5 5 4 4 2 2 2 2 2 2 2 2 1
-8 -6 -7 -6 -4 -3 -2 -1 1 0 0 -0 -1 -2 -3 -3 -4 -3 -1 -1 -1 -1 -1 3 4 5 5 5 5 6 5 5 5 4 3 2 2 2 2 2 2 2 1 1
-6 -5 -4 -4 -3 -2 -2 -0 0 -1 0 1 -2 -2 -2 -3 -3 -1 -1 -1 -1 0 3 4 5 5 5 5 5 5 5 5 5 4 4 3 2 2 2 2 2 1 1 0
-5 -4 -3 -3 -2 -2 -1 -1 1 1 0 -2 -3 -4 -4 -3 -1 -0 1 1 2 3 5 5 5 5 5 5 5 5 4 4 4 4 4 3 2 1 1 1 1 1 1 0
-4 -3 -3 -3 -2 -0 1 1 2 1 -0 -3 -3 -3 -3 -1 -1 -0 1 2 4 4 5 5 5 5 5 5 4 4 4 4 3 3 3 3 2 2 1 1 1 1 0 -0

GFSNW_700_temp_282.txt.gz
Temp
-11 -11 -10 -10 -9 -9 -9 -9 -8 -7 -5 -4 -4 -3 -3 -2 -0 0 1 2 3 3 2 2 2 2 2 2 1 1 1 1 -1 -2 -2 -2 -2 -2 -1 -0 -2 -2 -4 2
-11 -11 -10 -10 -10 -9 -10 -10 -9 -8 -6 -5 -4 -4 -3 -2 -1 -0 0 1 3 3 3 2 2 1 1 2 1 1 1 0 -1 -3 -2 -1 -2 -1 -1 -1 -1 -1 -2 3
-11 -10 -10 -10 -10 -9 -10 -10 -9 -9 -7 -4 -4 -3 -3 -3 -1 -0 -0 1 2 3 2 2 2 2 1 1 0 0 0 1 2 2 2 1 -0 1 -0 -1 -2 -0 1 3
-11 -11 -10 -10 -10 -10 -10 -10 -9 -8 -6 -4 -3 -3 -3 -2 -1 -1 -0 -0 1 2 2 2 2 2 2 1 1 0 0 0 0 1 1 1 1 1 1 1 1 1 2 3
-11 -11 -11 -10 -10 -10 -10 -10 -9 -8 -6 -4 -3 -4 -3 -2 -3 -1 0 -0 0 1 2 3 4 3 3 2 1 1 0 0 0 -0 -0 0 0 0 1 0 0 1 1 3
-11 -11 -10 -10 -10 -10 -10 -10 -9 -8 -7 -4 -5 -4 -3 -2 -3 -1 -0 0 0 1 1 2 2 2 2 2 2 2 1 -0 -0 -1 -1 -1 -0 3 3 3 3 3 2 3
-10 -10 -10 -10 -10 -10 -10 -9 -9 -8 -8 -6 -4 -4 -3 -2 -2 -2 -1 -0 0 1 1 1 2 2 0 1 1 1 1 -1 -1 -1 -2 -7 3 3 4 3 3 3 4 3
-10 -10 -11 -10 -10 -10 -10 -9 -9 -9 -7 -6 -4 -4 -4 -2 -2 -3 -2 -0 0 1 1 1 1 0 -0 -0 0 0 -1 -1 -1 -1 -2 1 3 4 4 4 4 4 4 3
-9 -10 -11 -10 -10 -10 -10 -9 -9 -9 -8 -6 -6 -4 -3 -2 -3 -3 -2 -2 -0 -0 1 1 1 1 0 -0 -0 -1 -2 -2 -2 -2 -2 -4 3 3 4 2 4 5 5 4
-9 -10 -10 -10 -10 -10 -10 -9 -9 -9 -9 -7 -6 -5 -3 -3 -3 -2 -2 -2 -2 -0 0 1 1 1 1 1 0 -0 -2 -3 -3 -3 -2 1 4 3 2 2 4 5 4 4
-8 -9 -10 -10 -10 -10 -10 -10 -9 -9 -8 -7 -7 -5 -4 -3 -3 -2 -2 -3 -2 -1 0 0 1 1 1 1 1 2 1 -1 -3 -4 -4 -1 3 3 3 4 4 4 4 3
-8 -8 -10 -10 -10 -10 -10 -10 -9 -9 -9 -6 -6 -5 -4 -4 -3 -2 -2 -1 -2 -1 -0 0 0 1 1 1 2 1 1 2 2 1 3 4 4 3 3 3 3 3 3 3
-8 -8 -10 -10 -10 -10 -10 -10 -10 -10 -9 -7 -7 -5 -4 -4 -3 -3 -3 -2 -1 -1 0 0 1 1 1 1 1 2 2 1 2 2 4 3 3 3 3 3 3 3 3 2
-9 -9 -10 -10 -10 -10 -10 -10 -9 -10 -9 -8 -6 -5 -4 -3 -3 -3 -3 -3 -1 -1 -1 0 0 1 1 1 2 2 2 2 3 3 4 3 3 3 3 3 3 3 3 2
-9 -9 -10 -10 -10 -10 -10 -10 -9 -9 -8 -8 -6 -5 -5 -3 -3 -2 -3 -3 -2 -3 -3 -0 0 0 1 1 1 2 2 3 3 4 3 3 3 3 3 3 3 3 2 2
-8 -9 -10 -10 -10 -10 -10 -10 -10 -9 -9 -9 -7 -4 -4 -3 -3 -4 -3 -2 -3 -3 -2 -1 -1 -0 0 0 0 2 2 2 3 3 2 2 3 3 3 3 2 2 2 2
-8 -9 -10 -10 -9 -10 -10 -10 -9 -9 -9 -9 -7 -5 -4 -3 -3 -3 -3 -3 -3 -3 -2 -3 -2 -1 -0 -0 0 1 2 3 3 3 3 3 3 3 3 3 3 2 2 2
-8 -9 -9 -10 -9 -10 -10 -10 -10 -9 -10 -10 -8 -6 -3 -3 -3 -3 -3 -3 -3 -3 -3 -3 -3 -2 -1 -1 1 2 2 3 3 3 3 3 2 2 3 3 2 2 3 2
-9 -9 -10 -9 -10 -10 -10 -10 -10 -9 -9 -10 -8 -5 -4 -4 -4 -4 -4 -4 -3 -4 -4 -2 -2 -2 -1 -0 1 2 3 3 4 3 4 3 3 3 3 3 3 3 2 2
-10 -11 -10 -9 -10 -10 -10 -9 -10 -10 -9 -8 -7 -6 -4 -4 -3 -4 -4 -4 -4 -3 -3 -3 -3 -2 1 1 1 1 2 4 4 4 4 4 4 4 4 3 2 2 2 2
-10 -9 -9 -9 -10 -10 -10 -9 -10 -9 -9 -8 -5 -6 -5 -4 -4 -4 -4 -4 -4 -4 -2 -2 -2 1 3 2 3 3 2 3 4 4 3 3 4 3 3 3 2 2 2 2
-9 -9 -9 -9 -9 -10 -9 -9 -9 -8 -7 -6 -3 -4 -5 -4 -4 -4 -4 -4 -3 -2 -1 -2 -2 5 4 4 4 4 4 4 4 5 4 4 3 3 3 3 2 2 1 1
-9 -9 -9 -9 -9 -9 -9 -9 -8 -7 -6 -4 -3 -4 -5 -5 -4 -4 -3 -3 -2 -2 -1 -2 2 4 4 5 5 5 5 5 5 5 5 4 4 3 3 3 2 2 2 1
-9 -9 -9 -9 -7 -6 -6 -6 -6 -5 -3 -2 -2 -2 -5 -4 -4 -3 -2 -2 -2 -1 -2 0 4 4 5 5 5 5 6 6 5 5 5 5 4 3 2 2 2 2 2 1
-8 -7 -7 -6 -5 -5 -5 -3 -4 -4 -4 -2 -5 -5 -4 -4 -3 -3 -3 -2 -1 -0 0 2 4 4 6 6 6 6 6 5 5 5 5 5 4 3 2 2 2 1 1 1
-7 -7 -6 -5 -5 -5 -4 -3 -4 -5 -5 -5 -4 -4 -4 -3 -3 -2 -1 -0 0 1 2 3 4 5 5 5 6 5 5 5 5 5 5 5 4 3 2 2 2 2 1 1
-7 -5 -5 -3 -3 -2 -1 -2 -3 -4 -4 -4 -3 -3 -3 -2 -3 -1 -0 0 3 3 3 5 5 5 5 5 5 5 5 5 5 5 5 4 4 3 3 2 2 2 1 1

GFSNW_700_temp_288.txt.gz
Temp
-10 -10 -10 -11 -10 -10 -10 -9 -9 -9 -9 -9 -8 -5 -5 -4 -3 -1 -1 1 1 2 1 2 2 2 2 3 2 2 3 2 -1 -1 -1 -1 -2 -1 -1 0 -2 -1 -2 3
-11 -11 -11 -11 -11 -10 -10 -10 -9 -9 -9 -8 -8 -7 -5 -4 -3 -2 -1 -0 1 2 1 1 0 1 2 3 2 2 2 1 -1 -2 -2 -1 -1 -1 -1 -1 -1 -0 -1 3
-10 -11 -11 -11 -11 -10 -10 -10 -10 -9 -9 -8 -7 -7 -6 -4 -3 -3 -1 -0 1 2 0 1 1 2 2 3 2 2 1 2 2 3 2 2 -0 -1 1 -1 -1 -1 1 3
-11 -11 -12 -12 -11 -11 -11 -10 -10 -10 -10 -9 -7 -7 -5 -4 -3 -3 -1 0 1 1 1 1 2 1 2 2 2 1 1 1 2 2 2 2 2 2 1 0 -0 -0 2 3
-11 -11 -12 -12 -11 -11 -11 -10 -10 -9 -9 -9 -9 -6 -5 -4 -3 -3 -2 -0 1 2 3 3 4 2 2 2 1 1 1 1 1 1 1 1 1 1 1 1 0 0 1 4
-11 -11 -12 -12 -11 -11 -11 -10 -10 -9 -10 -9 -9 -7 -6 -4 -3 -3 -3 -1 1 1 1 2 3 2 2 3 3 2 0 1 1 1 0 -2 -0 4 2 3 4 3 2 5
-11 -11 -12 -12 -12 -11 -10 -11 -10 -10 -10 -10 -9 -8 -6 -5 -3 -3 -3 -2 -0 1 1 1 2 1 1 1 2 2 2 0 0 -0 -2 -0 3 4 4 3 3 3 4 4
-12 -11 -11 -12 -12 -11 -10 -11 -10 -10 -10 -10 -10 -8 -6 -5 -4 -4 -4 -3 -2 0 1 1 -0 -1 -1 0 1 1 0 0 -0 -0 0 2 4 4 4 3 4 4 5 4
-12 -11 -11 -11 -11 -11 -10 -10 -10 -10 -10 -10 -10 -9 -7 -5 -4 -3 -4 -3 -1 -1 -0 -0 -0 -1 -0 -1 -1 -0 -0 -0 -0 -1 1 3 4 4 4 3 4 5 5 5
-13 -12 -12 -11 -11 -11 -11 -10 -10 -10 -10 -10 -10 -9 -8 -5 -4 -3 -3 -3 -3 -2 -1 0 0 0 0 -0 0 -1 -1 -1 -1 -1 -1 3 4 4 3 3 4 5 5 5
-12 -12 -12 -11 -11 -11 -11 -10 -10 -10 -10 -10 -9 -9 -6 -5 -5 -4 -3 -3 -4 -3 -1 0 1 1 1 0 0 2 1 -1 -1 -2 -1 1 4 3 3 4 4 4 4 4
-11 -11 -11 -11 -11 -11 -11 -10 -10 -10 -10 -10 -8 -8 -7 -6 -5 -4 -4 -3 -3 -3 -2 -1 0 1 1 2 1 2 1 2 3 3 3 3 4 4 4 3 4 4 4 4
-10 -10 -10 -10 -11 -11 -11 -10 -10 -10 -10 -10 -8 -8 -8 -7 -6 -5 -4 -3 -4 -3 -3 -1 0 1 2 2 2 2 2 2 2 3 3 3 3 3 3 3 3 3 3 3
-9 -9 -10 -10 -10 -11 -11 -10 -10 -10 -10 -10 -7 -8 -8 -8 -6 -5 -3 -3 -3 -3 -4 -3 -1 0 1 1 2 2 2 2 2 3 2 3 3 3 3 3 3 3 2 3
-10 -10 -10 -10 -10 -11 -11 -10 -10 -10 -10 -10 -8 -8 -8 -7 -6 -5 -4 -3 -3 -3 -3 -3 -1 -0 0 0 1 1 2 2 2 2 2 2 2 3 3 3 3 2 2 2
-10 -10 -10 -10 -11 -11 -10 -11 -11 -10 -10 -10 -10 -8 -7 -7 -6 -5 -4 -4 -4 -3 -3 -3 -2 -1 -1 -0 -0 1 1 1 1 1 2 2 3 3 3 3 3 3 2 2
-10 -10 -10 -10 -10 -10 -10 -10 -10 -10 -10 -10 -10 -8 -8 -7 -6 -6 -5 -5 -3 -3 -4 -2 -2 -1 -2 -1 -1 -0 1 1 1 1 2 2 2 2 3 3 2 2 2 2
-10 -10 -10 -10 -10 -10 -10 -10 -9 -9 -10 -10 -10 -9 -8 -6 -6 -6 -5 -5 -4 -4 -4 -2 -2 -2 -2 -2 -1 -0 1 1 1 2 2 2 2 2 2 2 2 2 2 2
-10 -10 -10 -10 -10 -10 -10 -10 -10 -10 -10 -10 -10 -10 -7 -6 -6 -5 -5 -5 -5 -4 -3 -3 -4 -3 -3 -2 1 2 2 2 2 2 2 2 3 3 3 2 2 2 2 2
-10 -10 -10 -10 -10 -10 -10 -10 -10 -10 -10 -10 -9 -9 -7 -6 -6 -6 -5 -4 -5 -4 -4 -3 -4 -3 -3 2 2 2 2 2 2 3 3 3 3 3 3 3 2 2 2 2
-10 -10 -9 -9 -9 -10 -10 -10 -10 -10 -10 -10 -8 -7 -6 -6 -6 -5 -6 -5 -5 -4 -3 -3 -3 -2 2 3 3 3 3 3 3 3 2 3 3 3 3 3 3 2 2 2
-10 -9 -9 -9 -9 -9 -9 -10 -10 -9 -9 -8 -7 -6 -7 -6 -5 -5 -5 -4 -4 -3 -3 -3 -3 1 3 3 3 4 3 3 3 3 3 2 2 3 3 3 3 3 2 2
-10 -10 -10 -10 -9 -9 -10 -9 -9 -9 -8 -8 -6 -6 -7 -6 -5 -5 -4 -4 -4 -4 -3 -2 -1 2 3 4 4 4 4 4 4 4 4 3 3 3 3 3 2 2 2 2
-9 -10 -10 -9 -9 -8 -8 -8 -9 -9 -8 -7 -6 -6 -7 -7 -6 -4 -4 -3 -3 -2 -2 -2 1 1 3 4 4 4 5 5 4 5 5 4 4 4 4 3 3 2 2 2
-10 -9 -9 -8 -7 -7 -8 -8 -8 -8 -7 -7 -7 -8 -6 -6 -5 -5 -4 -4 -2 -1 -1 -1 1 2 3 4 4 4 4 5 5 5 5 5 5 5 4 4 3 2 2 1
-9 -9 -9 -7 -8 -7 -7 -8 -8 -7 -7 -7 -7 -7 -6 -6 -5 -5 -4 -3 -2 -1 -0 1 3 3 3 4 4 4 5 5 5 5 5 5 5 5 5 4 4 3 2 1
-9 -9 -8 -8 -8 -7 -7 -7 -7 -6 -6 -6 -7 -6 -5 -5 -5 -5 -3 -2 -1 2 2 2 3 4 4 4 4 5 5 5 6 6 5 5 6 6 5 5 4 3 2 2

GFSNW_700_temp_294.txt.gz
Temp
-4 -5 -5 -5 -5 -5 -6 -8 -8 -7 -8 -8 -7 -7 -7 -6 -6 -5 -4 -4 -2 -1 1 2 4 5 5 5 4 4 3 2 0 1 1 1 0 1 1 2 -1 -1 -2 3
-5 -5 -5 -5 -5 -6 -7 -8 -7 -8 -7 -8 -8 -7 -6 -6 -6 -5 -4 -4 -2 -1 -2 0 0 4 4 3 3 3 2 2 1 -1 1 1 0 1 0 0 1 1 -0 3
-6 -6 -6 -6 -6 -7 -8 -9 -9 -8 -8 -7 -8 -7 -7 -6 -6 -6 -5 -4 -2 -0 -0 0 1 1 2 2 2 3 3 3 3 4 3 3 1 1 1 -0 -0 1 2 4
-7 -7 -7 -7 -7 -8 -9 -10 -9 -9 -8 -8 -7 -7 -7 -7 -6 -5 -4 -4 -2 -1 -2 1 1 2 3 2 2 3 2 3 2 3 4 3 3 1 1 1 1 1 2 3
-7 -7 -7 -8 -8 -9 -10 -10 -10 -10 -9 -9 -8 -7 -7 -7 -6 -6 -4 -4 -3 -3 -3 -1 2 0 2 3 2 2 2 2 2 3 3 3 3 3 2 1 2 1 1 2
-8 -8 -8 -8 -9 -10 -10 -10 -10 -10 -8 -9 -9 -8 -7 -7 -7 -5 -5 -4 -3 -3 -3 -2 0 3 2 2 1 2 2 2 2 3 3 3 2 3 3 3 2 2 1 3
-8 -8 -8 -9 -9 -10 -11 -10 -10 -10 -10 -10 -9 -8 -8 -7 -7 -7 -6 -5 -4 -2 -3 -1 2 1 1 1 1 1 1 1 2 3 2 1 4 4 4 4 3 3 2 1
-9 -9 -9 -9 -9 -10 -11 -11 -11 -11 -10 -10 -9 -8 -8 -7 -7 -7 -6 -4 -4 -3 -2 -2 -0 1 1 1 0 1 1 1 2 1 1 3 4 4 4 4 4 3 3 2
-9 -9 -9 -9 -10 -11 -11 -11 -11 -11 -10 -8 -10 -9 -8 -8 -7 -7 -6 -5 -4 -4 -2 -3 -0 1 1 0 0 1 1 0 1 1 2 4 4 4 4 3 3 4 3 3
-9 -9 -9 -10 -10 -11 -12 -11 -11 -11 -11 -9 -9 -9 -9 -8 -8 -8 -5 -5 -4 -4 -3 -3 -1 1 2 1 0 -0 1 0 0 0 1 3 3 4 4 3 3 4 3 3
-9 -10 -10 -11 -11 -12 -12 -11 -11 -11 -11 -9 -10 -9 -9 -9 -9 -8 -7 -5 -5 -4 -4 -2 -1 0 1 2 2 0 0 -0 -1 -0 0 1 3 4 3 3 4 4 4 2
-9 -10 -11 -11 -12 -13 -13 -11 -11 -11 -11 -10 -9 -9 -9 -9 -9 -8 -7 -7 -6 -4 -4 -2 -2 -1 0 1 2 1 1 2 2 2 2 3 3 4 3 3 4 4 3 2
-10 -11 -11 -11 -12 -12 -12 -11 -11 -11 -11 -10 -10 -9 -9 -9 -9 -8 -8 -7 -7 -4 -4 -3 -2 -1 0 1 1 1 1 1 1 2 2 3 3 3 3 3 4 4 4 3
-10 -11 -11 -11 -11 -12 -12 -11 -11 -11 -11 -11 -8 -9 -9 -9 -9 -8 -9 -7 -6 -5 -4 -3 -3 -2 -0 1 1 1 1 1 2 2 3 3 3 3 3 3 3 3 3 3
-11 -11 -11 -10 -11 -11 -11 -11 -11 -11 -11 -10 -9 -10 -8 -9 -8 -8 -9 -7 -6 -5 -5 -4 -3 -2 -1 0 1 1 1 2 2 3 3 2 3 3 3 3 3 3 3 3
-11 -10 -10 -10 -10 -10 -11 -11 -10 -10 -10 -10 -10 -9 -8 -8 -8 -7 -8 -6 -6 -5 -5 -4 -3 -2 -2 -0 1 1 2 2 2 2 2 3 3 3 3 3 3 3 3 3
-10 -10 -10 -9 -9 -9 -10 -10 -9 -10 -10 -10 -10 -9 -8 -8 -8 -8 -7 -6 -6 -6 -5 -4 -3 -3 -2 -1 0 1 2 1 1 2 2 2 3 3 3 3 3 3 3 2
-10 -10 -10 -9 -9 -9 -10 -10 -10 -9 -10 -10 -10 -9 -8 -8 -8 -8 -8 -8 -6 -6 -5 -4 -3 -3 -2 -2 -1 1 1 1 1 2 2 2 2 3 3 2 2 3 3 3
-10 -10 -9 -10 -10 -9 -9 -10 -10 -10 -9 -10 -10 -9 -8 -8 -7 -7 -7 -7 -6 -5 -5 -3 -4 -3 -3 -2 -1 1 1 0 1 2 2 2 2 2 2 2 2 3 2 2
-10 -9 -10 -10 -9 -10 -10 -10 -10 -10 -10 -10 -9 -9 -8 -7 -7 -6 -5 -5 -5 -5 -4 -3 -4 -3 -2 -1 0 1 1 1 1 1 1 2 3 3 3 2 3 2 2 2
-10 -9 -10 -9 -10 -10 -10 -10 -10 -10 -9 -9 -8 -8 -8 -7 -7 -6 -6 -5 -5 -4 -3 -3 -3 -2 0 1 1 2 1 -0 1 2 2 2 3 3 3 3 3 3 2 3
-10 -9 -10 -10 -10 -10 -10 -10 -10 -9 -9 -9 -8 -8 -8 -7 -7 -6 -5 -5 -4 -4 -3 -3 -2 -1 -0 2 3 3 2 2 2 2 2 2 2 3 3 3 3 3 3 3
-10 -9 -10 -10 -10 -10 -10 -9 -9 -9 -8 -8 -8 -8 -8 -7 -7 -6 -5 -5 -4 -4 -3 -2 -2 -1 -0 2 3 3 3 2 2 2 2 2 2 2 3 3 3 3 3 4
-10 -9 -10 -9 -9 -9 -9 -8 -8 -8 -8 -7 -8 -8 -8 -7 -7 -7 -6 -4 -4 -3 -2 -2 -2 -1 0 1 1 2 3 3 3 3 3 3 3 2 2 2 2 2 3 3
-9 -9 -9 -9 -8 -8 -8 -7 -7 -8 -7 -7 -8 -7 -7 -7 -7 -6 -6 -5 -3 -2 -2 -1 -1 -0 0 1 2 2 3 2 3 4 4 4 3 3 3 3 3 2 3 3
-9 -9 -9 -8 -7 -7 -7 -7 -7 -7 -7 -7 -7 -7 -7 -7 -7 -6 -5 -5 -3 -2 -1 -1 -0 0 1 1 2 2 2 3 2 2 3 4 4 4 4 3 3 4 3 3
-9 -9 -9 -8 -8 -7 -7 -7 -7 -7 -7 -7 -7 -7 -7 -6 -6 -6 -5 -4 -3 -2 -1 -1 -1 -0 0 0 0 0 1 3 3 2 3 3 4 4 4 4 4 4 4 3